Skip Page Navigation
NASA JPL Caltech
NASA Logo - Jet Propulsion Laboratory + View the NASA Portal
+ Center for Near-Earth Object Studies
JPL Home Earth Solar System Stars & Galaxies Technology
JPL Solar System Dynamics
BODIES ORBITS EPHEMERIDES TOOLS PHYSICAL DATA DISCOVERY FAQ SITE MAP
IMPORTANT: The SSD Announcement email list is now available. Major changes are coming in the near future, including possible hostname and/or URL changes. To be notified of such changes, subscribe to this email list.

Please visit this page for more details.


JPL Small-Body Database Browser
Search: [ help ]  
359026 (2008 VD46)
Classification: Main-belt Asteroid          SPK-ID: 2359026
Ephemeris | Orbit Diagram | Orbital Elements | Mission Design | Physical Parameters | Discovery Circumstances | Close-Approach Data ]

[ show orbit diagram ]
Orbital Elements at Epoch 2458600.5 (2019-Apr-27.0) TDB
Reference: JPL 9 (heliocentric ecliptic J2000)
 Element Value Uncertainty (1-sigma)   Units 
e .1393746498400103 6.0963e-08  
a 2.31690493120515 2.8102e-08 au
q 1.993987117705839 1.3334e-07 au
i 8.670166984706325 9.6466e-06 deg
node 188.3456395519967 4.8734e-05 deg
peri 331.0669332342317 6.3143e-05 deg
M 258.3782461328295 4.3551e-05 deg
tp 2458964.117630959482
(2020-Apr-24.61763096)
0.00015874 TDB
period 1288.133122722086
3.53
2.3436e-05
6.416e-08
d
yr
n .2794742202104446 5.0847e-09 deg/d
Q 2.639822744704461 3.2019e-08 au
  Orbit Determination Parameters
   # obs. used (total)      128  
   data-arc span      4577 days (12.53 yr)  
   first obs. used      2006-03-24  
   last obs. used      2018-10-04  
   planetary ephem.      DE431  
   SB-pert. ephem.      SB431-N16  
   condition code      0  
   norm. resid. RMS      .53439  
   source      ORB  
   producer      Otto Matic  
   solution date      2019-Jul-14 12:49:31  

Additional Information
 Earth MOID = 1.00679 au 
 Jupiter MOID = 2.3514 au 
 T_jup = 3.552 
[ show covariance matrix ]

Ephemeris | Orbit Diagram | Orbital Elements | Mission Design | Physical Parameters | Discovery Circumstances | Close-Approach Data ]

Physical Parameter Table
Parameter Symbol Value Units Sigma Reference Notes
absolute magnitude H 17.6   n/a MPO455590  

359026 (2008 VD46)          Discovered 2006-Mar-24 by Spacewatch at Kitt Peak
Reference: 20130327/Numbers.arcLast Updated: 2013-03-29

[ show close-approach data ]
Alternate Designations
 2008 VD46 = 2013 CE83 
Ephemeris | Orbit Diagram | Orbital Elements | Mission Design | Physical Parameters | Discovery Circumstances | Close-Approach Data ]
ABOUT SSD CREDITS/AWARDS PRIVACY/COPYRIGHT GLOSSARY LINKS
FirstGov
(server date/time)  
NASA Home Page
Site Manager:   Ryan S. Park
Webmaster  Alan B. Chamberlin